Temperature
24 21 21 21 22 22 23 23 23 23 24 23 22 21 21 21 21 20 20 19 19 19 19 19 18 18 18 17 17 17 17 17 16 16 15 15 15 15 14 14 14 14 14 14
22 22 23 23 24 24 23 23 23 24 24 23 21 21 21 21 20 20 19 19 19 18 18 18 18 18 17 17 17 17 16 16 16 16 15 15 14 14 14 14 14 14 14 13
22 23 25 25 24 24 24 23 24 24 23 23 22 20 20 20 20 20 19 19 19 18 18 18 18 17 17 17 16 16 16 16 16 15 15 14 14 14 14 14 14 14 13 13
23 24 25 24 24 24 23 24 25 24 22 20 21 19 19 19 19 19 19 18 18 18 18 18 18 17 17 17 16 16 16 15 15 15 14 14 14 14 14 13 13 13 13 13
23 24 25 24 25 25 24 24 24 23 21 20 20 19 18 18 18 18 18 18 18 18 18 18 17 17 17 16 16 16 16 15 15 15 14 14 14 13 13 13 13 13 13 13
24 25 25 25 26 25 24 23 22 20 19 19 20 18 18 17 18 18 18 18 18 18 18 17 17 17 16 16 16 15 15 15 15 14 14 14 14 13 13 13 13 13 13 13
24 24 25 26 25 24 23 20 20 20 18 19 19 18 17 18 18 18 18 18 18 18 18 17 17 16 16 16 15 15 15 15 14 14 14 13 13 13 13 13 13 13 12 12
22 23 24 25 25 24 23 21 20 20 19 18 18 18 18 18 19 19 18 18 18 18 17 17 16 16 16 15 15 15 15 14 14 14 13 13 13 13 13 13 13 12 12 12
22 23 25 26 26 25 24 21 20 19 19 18 18 18 18 18 18 18 18 18 17 17 17 17 16 16 16 15 15 15 14 14 14 13 13 13 13 13 13 12 12 12 12 12
23 23 24 25 25 24 24 22 19 19 19 18 18 18 17 18 17 17 17 17 17 17 17 16 16 16 15 15 15 14 14 14 14 13 13 13 13 13 12 12 12 12 12 12
22 21 22 23 24 24 23 22 19 17 17 18 18 17 18 17 17 16 16 17 17 17 16 16 16 15 15 15 15 14 14 14 13 13 13 13 13 12 12 12 12 12 12 12
21 19 20 22 23 24 23 22 20 19 19 17 17 17 19 17 17 17 17 17 17 16 16 16 15 15 15 15 14 14 14 13 13 13 13 12 12 12 12 12 12 12 12 11
21 19 19 20 21 22 23 23 21 18 17 17 17 17 18 17 17 17 17 16 16 16 16 15 15 15 14 14 14 14 13 13 13 13 13 12 12 12 12 12 12 12 12 11
21 18 19 20 20 21 22 22 21 19 17 17 18 17 17 17 16 16 16 16 16 16 16 15 15 15 14 14 14 14 13 13 13 13 12 12 12 12 12 12 12 12 11 11
19 19 20 20 21 22 22 22 21 20 19 18 18 17 17 16 16 16 16 16 16 15 15 15 15 14 14 14 14 13 13 13 13 13 12 12 12 12 12 12 12 11 11 11
18 19 20 20 22 22 22 22 21 20 20 19 18 17 16 17 17 16 16 16 16 15 15 15 15 14 14 14 14 13 13 13 13 13 12 12 12 12 12 12 12 11 11 11
17 18 18 18 20 21 20 20 20 19 19 18 17 17 16 15 16 16 16 16 16 15 15 15 15 14 14 14 14 13 13 13 13 13 12 12 12 12 12 12 12 11 11 11
17 17 16 17 19 19 19 20 20 19 19 18 17 16 16 16 17 17 17 16 16 15 15 15 15 14 14 14 14 13 13 13 13 13 12 12 12 12 12 12 12 11 11 11
17 17 16 16 17 18 19 20 20 19 17 17 17 16 16 16 16 16 16 17 16 16 15 15 15 14 14 14 14 13 13 13 13 13 12 12 12 12 12 12 12 11 11 11
17 16 16 17 18 17 18 20 20 19 16 17 16 16 16 16 14 14 16 16 16 16 15 15 15 14 14 14 13 13 13 13 13 13 12 12 12 12 12 12 12 12 12 11
18 17 16 16 17 17 18 20 20 18 16 17 17 16 16 15 15 16 16 16 16 16 15 15 14 14 14 14 13 13 13 13 13 13 12 12 12 12 12 12 12 12 12 12
17 16 16 15 16 16 18 18 17 16 17 18 17 17 17 17 17 16 16 16 16 15 15 15 14 14 14 14 13 13 13 13 13 13 13 12 12 12 12 12 12 12 12 12
16 16 15 15 15 16 18 18 18 18 18 18 18 17 17 17 16 16 16 16 15 15 15 14 14 14 14 14 13 13 13 13 13 13 13 12 12 12 12 12 12 12 12 12
16 16 15 15 16 16 18 18 18 18 18 18 18 17 17 17 16 16 16 15 15 15 15 14 14 14 14 14 13 13 13 13 13 13 13 12 12 12 12 12 12 12 12 12
16 15 14 14 15 16 17 17 18 18 18 18 17 17 17 16 16 16 15 15 15 15 14 14 14 14 14 14 14 13 13 13 13 13 13 12 12 12 12 12 12 12 12 12
14 14 14 14 15 14 16 17 17 17 17 17 17 16 16 16 16 15 15 15 15 14 14 14 14 14 14 14 13 13 13 13 13 13 13 12 12 12 12 12 12 12 12 12
Wind_Speed
1 3 4 7 6 7 4 3 4 5 3 4 4 3 3 4 7 9 9 9 9 8 6 6 7 7 6 5 4 4 3 1 2 1 1 0 1 1 1 1 1 1 1 2
3 4 10 6 4 3 3 3 4 3 1 4 5 3 2 3 6 8 8 8 8 7 5 5 5 4 5 5 4 4 3 2 2 1 1 1 1 1 1 1 1 1 2 2
5 7 5 3 3 3 4 3 3 3 3 4 4 3 3 3 5 5 5 6 7 8 7 6 5 4 4 4 4 3 2 2 1 1 1 1 2 2 1 2 2 3 3 2
4 5 2 2 4 3 4 4 1 0 3 2 2 1 2 0 3 3 3 4 5 6 6 5 5 4 4 4 4 3 2 1 1 1 1 1 1 1 2 2 2 4 3 3
5 4 3 3 5 3 4 2 1 1 3 1 3 3 3 0 1 0 2 4 5 5 6 5 5 4 3 3 3 2 2 1 0 1 1 1 1 2 2 2 2 3 4 3
6 5 3 4 3 2 2 4 6 5 5 2 2 3 3 2 4 3 2 2 3 4 4 4 3 4 3 3 3 2 2 0 0 1 2 2 2 2 1 2 2 3 3 3
5 5 3 1 1 3 4 5 4 6 4 2 1 2 3 3 3 5 5 4 3 4 4 4 3 3 3 3 2 2 1 0 1 1 2 2 2 2 2 3 3 3 2 2
1 5 4 1 3 3 2 8 6 3 4 3 2 1 3 3 2 4 5 4 3 3 3 4 4 3 3 3 2 2 1 1 1 1 1 2 2 2 2 3 3 3 3 4
3 5 4 2 1 4 2 2 7 6 1 1 0 0 2 1 4 4 4 4 3 2 2 3 2 2 2 2 2 2 1 0 1 1 1 2 2 2 2 2 2 2 3 3
4 2 4 3 4 3 3 5 6 4 2 1 1 3 4 4 3 3 4 4 3 3 2 2 2 2 1 1 1 1 1 1 1 0 1 1 2 2 2 2 2 3 3 2
3 2 4 4 1 1 2 3 5 4 5 4 2 4 4 7 6 6 5 5 4 4 2 2 2 2 2 1 1 1 0 1 1 0 1 1 2 1 1 1 2 2 2 2
2 4 1 4 4 1 3 3 5 3 2 4 3 4 2 6 6 5 5 5 4 3 2 2 2 2 2 2 2 1 0 1 0 0 0 1 2 2 2 3 3 2 2 2
3 5 3 6 7 6 4 1 2 5 4 3 3 4 1 3 4 4 5 4 4 3 3 3 2 2 2 1 1 1 0 0 1 0 1 1 2 2 3 3 2 2 1 2
4 4 5 6 6 3 3 3 1 4 3 3 4 4 2 3 3 3 4 4 4 4 4 3 2 1 1 1 0 0 1 1 1 1 1 1 2 2 3 2 2 2 1 1
4 2 2 4 4 1 2 2 1 1 4 5 4 5 5 6 6 5 5 5 4 3 3 3 2 1 0 1 1 1 1 1 1 1 1 1 2 2 2 2 2 2 2 1
3 2 1 3 2 2 2 1 2 1 2 4 5 2 3 4 5 5 5 5 4 3 3 2 2 1 1 0 1 1 1 1 0 1 1 1 1 2 2 2 2 2 2 2
1 3 2 3 5 3 2 1 3 3 2 5 4 4 3 4 6 8 7 5 4 4 3 3 2 2 2 1 1 1 1 1 1 1 1 1 1 2 2 3 2 2 2 1
5 4 3 1 3 1 4 1 6 6 3 2 4 5 6 6 6 6 6 6 4 4 3 3 2 2 1 1 1 0 1 1 1 0 1 1 1 1 2 2 2 2 1 1
7 7 4 3 1 2 3 2 2 4 2 1 4 4 4 5 5 1 2 4 5 5 4 3 3 3 2 1 1 2 2 1 1 1 1 1 1 0 1 2 2 2 1 1
4 5 5 4 3 4 5 5 1 6 1 2 4 5 4 5 3 3 4 3 4 3 3 3 2 2 2 1 1 2 1 1 1 2 2 2 0 0 1 1 1 1 1 1
2 2 3 4 4 4 4 3 2 3 5 3 4 5 5 4 5 5 4 3 4 3 3 3 3 2 2 2 2 2 1 1 2 1 0 0 0 0 1 1 1 1 1 1
4 3 3 3 3 5 4 2 4 6 4 4 4 4 4 3 3 5 5 5 4 3 3 4 3 2 2 2 3 2 1 2 1 0 1 1 1 1 1 1 2 1 1 2
2 5 4 5 5 4 2 4 4 6 5 3 4 4 5 4 3 5 4 5 4 3 3 3 3 2 2 2 3 2 2 1 1 1 1 1 1 2 1 1 1 2 1 1
3 2 3 2 1 1 1 2 3 4 4 3 4 4 5 4 4 4 4 3 3 2 2 3 3 3 2 2 2 3 2 1 1 1 0 0 1 2 2 2 1 0 1 1
2 1 2 1 1 1 2 0 2 3 4 4 4 3 4 5 4 4 4 3 3 2 2 3 4 4 4 3 3 3 2 1 1 0 0 1 1 1 2 2 2 2 3 4
2 2 3 4 4 3 4 3 2 4 4 5 5 3 4 4 5 4 4 3 3 3 2 2 3 3 3 3 3 2 2 2 2 1 1 1 1 2 2 2 3 4 3 4
Wind_Direction
264 78 245 236 217 216 245 267 284 267 219 112 126 148 164 166 152 149 150 151 146 146 145 141 142 146 146 143 142 144 134 132 111 97 79 41 305 319 335 303 308 351 312 314
24 266 244 234 249 253 259 278 285 292 122 114 129 106 126 132 153 151 151 152 148 134 131 137 138 143 150 162 163 151 146 143 137 146 167 191 213 242 247 282 311 310 328 317
208 251 251 210 268 286 280 236 242 252 16 50 100 41 37 42 75 101 122 133 135 142 148 151 147 151 151 160 159 150 158 154 158 150 94 43 33 19 354 321 300 294 297 298
253 259 263 249 249 222 268 266 241 193 78 317 109 151 284 94 65 91 126 133 146 152 156 160 163 173 171 168 150 141 149 146 171 145 126 123 191 237 252 252 262 287 295 294
262 256 262 261 250 209 228 250 64 96 117 44 23 108 286 43 95 179 166 154 155 153 156 163 164 166 161 150 146 149 123 101 131 148 171 182 237 242 263 282 287 294 297 296
256 261 222 232 260 180 132 33 29 47 69 27 285 143 276 245 212 206 217 169 147 140 148 151 147 145 139 135 135 146 121 154 251 194 200 198 220 246 275 292 290 295 298 297
321 319 291 244 16 353 72 73 28 5 14 269 326 112 243 257 210 181 181 170 142 145 147 140 134 132 135 133 131 130 125 194 252 227 235 227 228 231 239 258 262 276 286 275
321 300 283 268 191 187 165 136 151 195 225 268 3 151 249 263 183 145 141 142 135 129 143 149 153 153 150 149 150 157 146 196 242 283 279 274 258 251 259 258 257 258 256 251
192 264 288 258 224 145 131 150 166 144 137 94 292 151 305 36 97 110 110 115 131 145 138 155 155 147 144 155 180 179 162 140 245 271 288 292 280 275 272 279 277 272 267 260
161 259 296 308 34 12 143 137 84 95 129 255 262 218 217 209 172 148 137 138 135 120 115 137 138 124 139 175 198 148 166 201 242 256 296 313 284 286 283 287 288 285 294 296
112 132 313 359 76 249 39 61 99 113 145 153 221 264 216 188 186 175 167 157 153 137 141 137 126 121 128 99 76 94 95 92 46 21 334 351 344 339 328 320 301 300 304 316
110 117 296 282 279 207 140 161 139 139 221 156 160 260 247 170 180 168 160 157 148 139 124 117 109 93 87 81 67 70 77 103 327 223 347 330 339 348 351 332 314 320 326 326
110 101 42 348 348 1 21 16 129 132 123 145 157 245 251 144 146 152 150 152 142 128 106 93 83 83 89 88 67 56 15 202 254 294 12 343 332 327 326 318 321 329 335 341
106 109 158 195 228 268 307 323 20 111 138 184 196 193 190 167 152 153 139 135 133 131 124 112 98 90 95 91 55 15 318 298 336 11 0 345 306 302 306 325 332 336 338 350
91 128 210 235 248 256 273 288 338 134 175 173 190 172 197 194 174 161 143 127 120 127 127 138 148 135 87 38 15 13 309 307 350 31 9 314 284 303 335 346 337 339 349 348
71 122 19 312 290 348 347 5 100 97 127 134 129 181 221 179 141 136 140 143 140 151 158 154 148 139 161 198 347 4 302 291 1 68 11 338 351 345 345 334 349 17 12 9
105 113 92 276 300 9 348 283 142 113 114 142 168 207 169 142 157 164 165 160 164 169 168 161 166 176 192 212 202 245 286 316 59 75 47 36 27 11 344 344 26 6 349 10
155 132 141 224 15 239 247 222 127 115 80 104 140 155 158 163 170 169 162 161 170 168 168 173 176 179 188 180 185 270 31 51 72 38 355 336 347 344 343 9 5 345 344 355
160 149 143 140 182 257 293 303 157 135 62 49 119 128 120 106 88 67 191 165 170 173 178 185 186 179 166 164 157 88 73 55 35 321 288 284 297 350 355 357 336 336 5 352
117 121 137 154 174 215 246 282 264 105 97 300 115 119 134 115 116 233 226 173 156 157 160 167 167 140 144 201 122 96 69 26 319 279 257 249 245 115 299 311 307 310 330 288
90 93 153 175 201 241 255 273 78 132 231 219 150 147 154 169 196 202 183 169 162 155 153 150 147 154 190 185 124 106 50 310 277 261 14 8 25 110 249 290 307 310 327 337
172 166 189 163 187 244 272 106 156 201 195 155 149 160 157 165 154 143 149 155 155 151 148 149 150 177 200 160 133 129 280 286 296 70 52 16 356 328 356 5 341 350 12 2
165 184 180 178 201 226 204 158 168 154 146 153 155 168 150 137 146 147 153 159 162 164 167 165 164 176 202 181 158 176 260 275 56 59 40 20 356 338 340 9 355 356 2 352
321 37 90 81 162 167 127 124 127 136 147 154 142 147 136 136 145 148 151 155 160 174 176 171 163 173 212 218 196 208 229 209 116 86 50 28 344 327 331 336 332 321 305 296
267 33 64 64 248 37 6 254 182 141 128 124 126 139 145 139 147 158 164 169 172 176 187 175 177 194 214 215 222 232 211 153 132 153 241 260 273 282 313 322 301 266 259 230
253 179 166 231 234 199 238 240 153 130 141 149 144 143 156 156 161 159 167 176 177 184 188 181 189 202 212 205 218 230 200 169 156 175 249 254 270 287 293 313 332 321 276 280
Height
1491 1497 1501 1498 1495 1496 1496 1497 1498 1491 1484 1488 1494 1495 1494 1494 1495 1496 1498 1499 1501 1502 1504 1505 1505 1506 1506 1506 1507 1506 1506 1505 1504 1504 1502 1501 1500 1498 1497 1496 1496 1494 1493 1492
1496 1498 1489 1486 1488 1490 1492 1496 1496 1489 1483 1489 1496 1498 1495 1494 1495 1496 1498 1500 1501 1502 1504 1505 1506 1506 1506 1505 1505 1505 1505 1504 1503 1502 1501 1500 1498 1497 1495 1494 1493 1492 1491 1490
1496 1490 1483 1486 1488 1491 1491 1494 1493 1491 1488 1489 1496 1505 1502 1499 1498 1499 1500 1500 1501 1502 1503 1504 1504 1504 1505 1505 1504 1504 1503 1502 1501 1500 1499 1498 1496 1495 1494 1492 1490 1489 1488 1486
1490 1483 1482 1485 1487 1487 1495 1484 1484 1487 1497 1507 1502 1520 1509 1503 1501 1501 1502 1502 1502 1502 1503 1504 1504 1504 1504 1504 1503 1503 1502 1501 1499 1498 1497 1495 1494 1492 1491 1490 1488 1487 1486 1484
1489 1482 1482 1485 1482 1481 1486 1480 1482 1486 1497 1507 1506 1518 1515 1505 1506 1504 1503 1502 1502 1502 1502 1503 1503 1504 1503 1503 1502 1501 1500 1499 1497 1496 1495 1494 1493 1491 1490 1488 1487 1485 1484 1482
1482 1477 1477 1478 1475 1476 1478 1483 1487 1494 1504 1519 1511 1518 1519 1510 1505 1503 1502 1502 1502 1502 1502 1502 1502 1502 1502 1501 1500 1499 1498 1497 1496 1495 1493 1492 1491 1489 1488 1486 1485 1483 1481 1480
1487 1480 1475 1474 1478 1478 1482 1499 1516 1519 1526 1524 1510 1516 1517 1504 1499 1499 1500 1501 1501 1502 1502 1501 1501 1501 1500 1499 1498 1497 1496 1494 1494 1493 1491 1490 1489 1487 1486 1484 1483 1481 1480 1479
1498 1497 1478 1473 1476 1481 1483 1495 1517 1527 1530 1525 1514 1519 1511 1500 1498 1497 1498 1500 1501 1502 1502 1501 1500 1499 1498 1498 1496 1495 1494 1492 1492 1491 1490 1488 1487 1486 1484 1483 1481 1480 1478 1477
1496 1494 1474 1470 1469 1474 1482 1490 1493 1510 1516 1525 1521 1514 1506 1500 1499 1499 1499 1500 1500 1501 1501 1500 1499 1498 1497 1496 1495 1494 1493 1491 1490 1490 1489 1487 1485 1484 1482 1481 1480 1478 1477 1476
1484 1491 1479 1471 1470 1472 1476 1482 1497 1509 1522 1529 1523 1519 1516 1505 1502 1500 1500 1500 1500 1500 1500 1499 1498 1497 1496 1495 1494 1493 1492 1491 1490 1489 1488 1486 1484 1483 1481 1479 1478 1477 1476 1474
1480 1492 1487 1479 1480 1482 1481 1485 1495 1508 1513 1525 1530 1523 1500 1500 1499 1499 1499 1499 1498 1498 1498 1497 1497 1497 1496 1495 1493 1492 1491 1490 1489 1488 1487 1485 1483 1481 1479 1478 1477 1475 1474 1473
1480 1492 1497 1487 1475 1471 1476 1481 1491 1507 1511 1514 1523 1521 1494 1495 1495 1496 1498 1498 1498 1498 1497 1497 1497 1496 1495 1494 1492 1491 1490 1489 1488 1487 1486 1484 1482 1480 1478 1477 1475 1474 1473 1472
1480 1493 1506 1501 1493 1481 1480 1479 1484 1494 1506 1514 1521 1516 1495 1495 1496 1496 1496 1497 1497 1497 1497 1497 1496 1495 1494 1493 1492 1491 1489 1488 1488 1486 1484 1483 1481 1479 1477 1475 1474 1473 1472 1471
1476 1491 1502 1508 1501 1490 1487 1482 1482 1491 1507 1510 1507 1505 1499 1496 1496 1496 1496 1496 1497 1497 1497 1496 1496 1495 1493 1492 1491 1490 1489 1488 1487 1485 1483 1482 1480 1478 1476 1474 1473 1472 1471 1470
1478 1490 1488 1487 1483 1481 1482 1482 1482 1487 1492 1501 1499 1499 1497 1494 1494 1494 1495 1496 1496 1496 1496 1495 1495 1494 1493 1492 1491 1490 1488 1487 1486 1484 1482 1481 1479 1477 1476 1474 1472 1471 1470 1470
1480 1487 1487 1488 1480 1480 1482 1480 1481 1484 1486 1491 1494 1497 1491 1491 1492 1493 1494 1495 1495 1495 1495 1494 1494 1493 1492 1491 1490 1489 1488 1487 1485 1484 1482 1481 1479 1477 1476 1474 1472 1471 1470 1469
1483 1488 1495 1498 1485 1483 1493 1484 1483 1486 1485 1488 1495 1494 1490 1491 1491 1491 1492 1493 1494 1494 1494 1493 1493 1493 1492 1491 1490 1489 1488 1487 1485 1484 1482 1481 1479 1477 1476 1474 1473 1472 1471 1469
1482 1488 1496 1499 1495 1503 1493 1478 1478 1483 1485 1484 1485 1486 1486 1487 1489 1490 1491 1491 1492 1493 1493 1492 1492 1492 1491 1490 1490 1489 1488 1486 1485 1484 1483 1481 1479 1478 1476 1475 1473 1472 1471 1470
1473 1483 1494 1501 1503 1498 1487 1479 1479 1484 1490 1485 1485 1485 1486 1487 1489 1491 1491 1490 1491 1491 1491 1491 1491 1491 1490 1490 1489 1488 1487 1486 1485 1484 1483 1481 1480 1478 1477 1476 1474 1473 1471 1470
1473 1478 1490 1497 1501 1504 1491 1478 1475 1480 1493 1486 1485 1485 1487 1487 1493 1492 1490 1490 1490 1490 1490 1490 1491 1490 1490 1490 1489 1488 1487 1486 1485 1484 1483 1482 1480 1479 1477 1476 1475 1474 1472 1470
1481 1485 1490 1495 1499 1493 1481 1475 1476 1492 1493 1484 1484 1484 1485 1486 1487 1487 1488 1489 1489 1489 1489 1489 1490 1489 1489 1489 1488 1487 1487 1486 1485 1484 1483 1482 1480 1479 1478 1476 1475 1474 1472 1470
1482 1488 1490 1493 1499 1496 1477 1476 1481 1484 1480 1481 1482 1483 1483 1484 1484 1485 1486 1487 1487 1488 1488 1489 1489 1489 1489 1488 1488 1487 1486 1486 1485 1484 1483 1482 1481 1480 1478 1477 1475 1473 1472 1470
1478 1480 1482 1485 1487 1479 1475 1475 1476 1477 1478 1479 1480 1482 1482 1483 1483 1484 1485 1486 1486 1487 1487 1487 1488 1488 1488 1487 1487 1486 1486 1485 1484 1484 1483 1482 1481 1480 1478 1477 1475 1473 1471 1470
1476 1474 1477 1480 1478 1476 1475 1475 1475 1475 1477 1478 1479 1480 1480 1481 1482 1483 1484 1484 1485 1485 1486 1486 1486 1487 1487 1486 1486 1486 1485 1484 1484 1483 1482 1482 1481 1479 1478 1476 1475 1473 1471 1470
1477 1476 1478 1479 1477 1476 1475 1474 1475 1475 1476 1477 1477 1478 1479 1480 1481 1482 1482 1483 1483 1484 1484 1485 1485 1485 1485 1485 1485 1484 1484 1483 1483 1482 1482 1481 1480 1479 1477 1476 1475 1473 1472 1470
1475 1476 1479 1480 1476 1476 1475 1474 1474 1474 1474 1475 1476 1477 1478 1478 1479 1480 1481 1481 1482 1482 1482 1483 1483 1483 1483 1483 1483 1483 1483 1483 1482 1481 1481 1480 1479 1478 1477 1475 1474 1473 1471 1470